Time,TemperatureF,DewpointF,PressureIn,WindDirection,WindDirectionDegrees,WindSpeedMPH,WindSpeedGustMPH,Humidity,HourlyPrecipIn,Conditions,Clouds,dailyrainin,SoftwareType,DateUTC
2013-01-24 00:02:00,59.4,58.8,30.16,SSE,157,0.0,-999.0,98,-99.99,,,0.00,Acu-Link.com,2013-01-24 06:02:00,
2013-01-24 00:17:00,59.2,58.6,30.17,SSE,157,0.0,-999.0,98,-99.99,,,0.00,Acu-Link.com,2013-01-24 06:17:00,
2013-01-24 00:33:00,59.7,59.2,30.17,SE,135,0.0,-999.0,98,-99.99,,,0.00,Acu-Link.com,2013-01-24 06:33:00,
2013-01-24 00:48:00,60.8,60.2,30.16,SE,135,0.0,-999.0,98,-99.99,,,0.00,Acu-Link.com,2013-01-24 06:48:00,
2013-01-24 01:03:00,61.2,60.6,30.16,SE,135,0.0,-999.0,98,-99.99,,,0.00,Acu-Link.com,2013-01-24 07:03:00,
2013-01-24 01:18:00,61.3,60.8,30.16,SSE,157,0.0,-999.0,98,-99.99,,,0.00,Acu-Link.com,2013-01-24 07:18:00,
2013-01-24 01:34:00,61.3,60.8,30.16,SSE,157,0.0,-999.0,98,-99.99,,,0.00,Acu-Link.com,2013-01-24 07:34:00,
2013-01-24 01:49:00,60.8,60.2,30.16,SSE,157,0.0,-999.0,98,-99.99,,,0.00,Acu-Link.com,2013-01-24 07:49:00,
2013-01-24 02:04:00,60.1,59.5,30.17,SSE,157,0.0,-999.0,98,-99.99,,,0.00,Acu-Link.com,2013-01-24 08:04:00,
2013-01-24 02:19:00,61.3,60.8,30.17,SSE,157,0.0,-999.0,98,-99.99,,,0.00,Acu-Link.com,2013-01-24 08:19:00,
2013-01-24 02:34:00,61.7,61.1,30.16,SSE,157,0.0,-999.0,98,-99.99,,,0.00,Acu-Link.com,2013-01-24 08:34:00,
2013-01-24 02:50:00,61.7,61.1,30.16,SSE,157,0.0,-999.0,98,-99.99,,,0.00,Acu-Link.com,2013-01-24 08:50:00,
2013-01-24 03:16:00,61.5,60.9,30.16,SSE,157,0.0,-999.0,98,-99.99,,,0.00,Acu-Link.com,2013-01-24 09:16:00,
2013-01-24 03:31:00,60.6,60.3,30.17,SSE,157,0.0,-999.0,99,-99.99,,,0.00,Acu-Link.com,2013-01-24 09:31:00,
2013-01-24 03:46:00,60.6,60.1,30.17,SSE,157,0.0,-999.0,98,-99.99,,,0.00,Acu-Link.com,2013-01-24 09:46:00,
2013-01-24 04:01:00,61.0,60.4,30.17,SSE,157,0.0,-999.0,98,-99.99,,,0.00,Acu-Link.com,2013-01-24 10:01:00,
2013-01-24 04:16:00,61.9,61.3,30.17,SSE,157,0.0,-999.0,98,-99.99,,,0.00,Acu-Link.com,2013-01-24 10:16:00,
2013-01-24 04:32:00,62.8,62.2,30.17,SSE,157,0.0,-999.0,98,-99.99,,,0.00,Acu-Link.com,2013-01-24 10:32:00,
2013-01-24 04:47:00,63.5,62.9,30.17,SSE,157,0.0,-999.0,98,-99.99,,,0.00,Acu-Link.com,2013-01-24 10:47:00,
2013-01-24 05:02:00,64.2,63.6,30.17,SSE,157,0.0,-999.0,98,-99.99,,,0.00,Acu-Link.com,2013-01-24 11:02:00,
2013-01-24 05:17:00,65.5,64.9,30.16,SSE,157,0.0,-999.0,98,-99.99,,,0.00,Acu-Link.com,2013-01-24 11:17:00,
2013-01-24 05:32:00,66.9,66.3,30.16,SE,135,0.0,-999.0,98,-99.99,,,0.00,Acu-Link.com,2013-01-24 11:32:00,
2013-01-24 05:48:00,67.6,67.1,30.17,SE,135,0.0,-999.0,98,-99.99,,,0.00,Acu-Link.com,2013-01-24 11:48:00,
2013-01-24 06:03:00,68.0,67.4,30.17,SE,135,0.0,-999.0,98,-99.99,,,0.00,Acu-Link.com,2013-01-24 12:03:00,
2013-01-24 06:18:00,68.5,68.0,30.17,SSE,157,0.0,-999.0,98,-99.99,,,0.00,Acu-Link.com,2013-01-24 12:18:00,
2013-01-24 06:33:00,68.7,68.1,30.17,SE,135,0.0,-999.0,98,-99.99,,,0.00,Acu-Link.com,2013-01-24 12:33:00,
2013-01-24 06:48:00,69.4,68.8,30.17,SE,135,0.0,-999.0,98,-99.99,,,0.00,Acu-Link.com,2013-01-24 12:48:00,
2013-01-24 07:04:00,70.0,69.4,30.18,SE,135,0.0,-999.0,98,-99.99,,,0.00,Acu-Link.com,2013-01-24 13:04:00,
2013-01-24 07:19:00,70.9,70.3,30.18,SSE,157,0.0,-999.0,98,-99.99,,,0.00,Acu-Link.com,2013-01-24 13:19:00,
2013-01-24 07:34:00,71.6,71.0,30.18,SSE,157,1.6,-999.0,98,-99.99,,,0.00,Acu-Link.com,2013-01-24 13:34:00,
2013-01-24 07:49:00,72.5,71.9,30.19,SSE,157,0.0,-999.0,98,-99.99,,,0.00,Acu-Link.com,2013-01-24 13:49:00,
2013-01-24 08:04:00,73.4,72.8,30.19,SSE,157,0.0,-999.0,98,-99.99,,,0.00,Acu-Link.com,2013-01-24 14:04:00,
2013-01-24 08:20:00,74.3,73.7,30.19,SSE,157,0.0,-999.0,98,-99.99,,,0.00,Acu-Link.com,2013-01-24 14:20:00,
2013-01-24 08:35:00,74.8,74.2,30.19,SE,135,0.0,-999.0,98,-99.99,,,0.00,Acu-Link.com,2013-01-24 14:35:00,
2013-01-24 08:50:00,75.7,75.1,30.19,SE,135,0.0,-999.0,98,-99.99,,,0.00,Acu-Link.com,2013-01-24 14:50:00,
2013-01-24 09:05:00,76.8,76.2,30.20,SSE,157,4.3,-999.0,98,-99.99,,,0.00,Acu-Link.com,2013-01-24 15:05:00,
2013-01-24 09:21:00,78.1,77.5,30.20,SSE,157,6.7,-999.0,98,-99.99,,,0.00,Acu-Link.com,2013-01-24 15:21:00,
2013-01-24 09:36:00,79.3,78.7,30.19,SSE,157,0.0,-999.0,98,-99.99,,,0.00,Acu-Link.com,2013-01-24 15:36:00,
2013-01-24 09:51:00,80.2,79.6,30.19,SE,135,6.3,-999.0,98,-99.99,,,0.00,Acu-Link.com,2013-01-24 15:51:00,
2013-01-24 10:06:00,81.5,80.9,30.20,SSE,157,0.0,-999.0,98,-99.99,,,0.00,Acu-Link.com,2013-01-24 16:06:00,
2013-01-24 10:21:00,83.1,82.5,30.21,SSE,157,6.7,-999.0,98,-99.99,,,0.00,Acu-Link.com,2013-01-24 16:21:00,
2013-01-24 10:37:00,83.8,83.2,30.20,SSE,157,0.0,-999.0,98,-99.99,,,0.00,Acu-Link.com,2013-01-24 16:37:00,
2013-01-24 10:52:00,84.2,83.6,30.21,SSE,157,1.1,-999.0,98,-99.99,,,0.00,Acu-Link.com,2013-01-24 16:52:00,
2013-01-24 11:07:00,79.9,77.3,30.21,SSE,157,3.8,-999.0,92,-99.99,,,0.00,Acu-Link.com,2013-01-24 17:07:00,
2013-01-24 11:22:00,69.6,69.0,30.20,SSE,157,1.1,-999.0,98,-99.99,,,0.00,Acu-Link.com,2013-01-24 17:22:00,
2013-01-24 11:37:00,66.9,66.3,30.20,SSE,157,0.0,-999.0,98,-99.99,,,0.00,Acu-Link.com,2013-01-24 17:37:00,
2013-01-24 11:53:00,66.2,65.6,30.18,SSE,157,8.3,-999.0,98,-99.99,,,0.00,Acu-Link.com,2013-01-24 17:53:00,
2013-01-24 12:08:00,67.8,67.2,30.17,SSE,157,0.0,-999.0,98,-99.99,,,0.00,Acu-Link.com,2013-01-24 18:08:00,
2013-01-24 12:23:00,66.9,66.3,30.16,SSE,157,0.0,-999.0,98,-99.99,,,0.00,Acu-Link.com,2013-01-24 18:23:00,
2013-01-24 12:38:00,70.5,69.9,30.16,SSE,157,0.0,-999.0,98,-99.99,,,0.00,Acu-Link.com,2013-01-24 18:38:00,
2013-01-24 12:53:00,70.2,69.6,30.15,SSE,157,0.0,-999.0,98,-99.99,,,0.00,Acu-Link.com,2013-01-24 18:53:00,
2013-01-24 13:09:00,72.7,72.1,30.14,SSE,157,0.0,-999.0,98,-99.99,,,0.00,Acu-Link.com,2013-01-24 19:09:00,
2013-01-24 13:24:00,74.1,73.5,30.13,ESE,112,0.0,-999.0,98,-99.99,,,0.00,Acu-Link.com,2013-01-24 19:24:00,
2013-01-24 13:39:00,74.1,73.5,30.12,SE,135,0.0,-999.0,98,-99.99,,,0.00,Acu-Link.com,2013-01-24 19:39:00,
2013-01-24 13:54:00,73.2,72.6,30.12,SSE,157,0.0,-999.0,98,-99.99,,,0.00,Acu-Link.com,2013-01-24 19:54:00,
2013-01-24 14:10:00,74.5,70.3,30.11,SE,135,0.0,-999.0,87,-99.99,,,0.00,Acu-Link.com,2013-01-24 20:10:00,
2013-01-24 14:25:00,76.5,61.5,30.10,SSE,157,0.0,-999.0,60,-99.99,,,0.00,Acu-Link.com,2013-01-24 20:25:00,
2013-01-24 14:40:00,75.2,48.5,30.10,SSE,157,0.0,-999.0,39,-99.99,,,0.00,Acu-Link.com,2013-01-24 20:40:00,
2013-01-24 14:55:00,75.7,41.2,30.10,SSE,157,0.0,-999.0,29,-99.99,,,0.00,Acu-Link.com,2013-01-24 20:55:00,
2013-01-24 15:10:00,76.6,76.3,30.09,SE,135,0.0,-999.0,99,-99.99,,,0.00,Acu-Link.com,2013-01-24 21:10:00,
2013-01-24 15:26:00,77.5,77.2,30.09,SSE,157,0.0,-999.0,99,-99.99,,,0.00,Acu-Link.com,2013-01-24 21:26:00,
2013-01-24 15:41:00,76.8,76.5,30.08,ESE,112,0.0,-999.0,99,-99.99,,,0.00,Acu-Link.com,2013-01-24 21:41:00,
2013-01-24 15:56:00,77.5,77.2,30.08,SSE,157,0.0,-999.0,99,-99.99,,,0.00,Acu-Link.com,2013-01-24 21:56:00,
2013-01-24 16:11:00,76.6,76.3,30.07,SE,135,0.0,-999.0,99,-99.99,,,0.00,Acu-Link.com,2013-01-24 22:11:00,
2013-01-24 16:26:00,77.4,77.1,30.06,SSE,157,0.0,-999.0,99,-99.99,,,0.00,Acu-Link.com,2013-01-24 22:26:00,
2013-01-24 16:42:00,76.3,76.0,30.06,ENE,67,0.0,-999.0,99,-99.99,,,0.00,Acu-Link.com,2013-01-24 22:42:00,
2013-01-24 16:57:00,75.7,75.4,30.05,SE,135,0.0,-999.0,99,-99.99,,,0.00,Acu-Link.com,2013-01-24 22:57:00,
2013-01-24 17:12:00,74.5,74.2,30.05,NE,45,0.0,-999.0,99,-99.99,,,0.00,Acu-Link.com,2013-01-24 23:12:00,
2013-01-24 17:27:00,72.0,71.4,30.06,NNE,22,0.0,-999.0,98,-99.99,,,0.00,Acu-Link.com,2013-01-24 23:27:00,
2013-01-24 17:43:00,71.1,70.5,30.06,South,180,0.0,-999.0,98,-99.99,,,0.00,Acu-Link.com,2013-01-24 23:43:00,
2013-01-24 17:58:00,70.0,69.4,30.06,South,180,0.0,-999.0,98,-99.99,,,0.00,Acu-Link.com,2013-01-24 23:58:00,
2013-01-24 18:13:00,69.4,68.8,30.05,ENE,67,0.0,-999.0,98,-99.99,,,0.00,Acu-Link.com,2013-01-25 00:13:00,
2013-01-24 18:28:00,69.1,68.5,30.06,ESE,112,0.0,-999.0,98,-99.99,,,0.00,Acu-Link.com,2013-01-25 00:28:00,
2013-01-24 18:43:00,68.7,68.1,30.06,ESE,112,0.0,-999.0,98,-99.99,,,0.00,Acu-Link.com,2013-01-25 00:43:00,
2013-01-24 18:59:00,68.0,67.4,30.06,ESE,112,0.0,-999.0,98,-99.99,,,0.00,Acu-Link.com,2013-01-25 00:59:00,
2013-01-24 19:14:00,67.5,66.9,30.07,ESE,112,0.0,-999.0,98,-99.99,,,0.00,Acu-Link.com,2013-01-25 01:14:00,
2013-01-24 19:29:00,67.1,66.5,30.06,ESE,112,0.0,-999.0,98,-99.99,,,0.00,Acu-Link.com,2013-01-25 01:29:00,
2013-01-24 19:44:00,66.2,65.6,30.06,ESE,112,0.0,-999.0,98,-99.99,,,0.00,Acu-Link.com,2013-01-25 01:44:00,
2013-01-24 19:59:00,65.1,64.5,30.07,ESE,112,0.0,-999.0,98,-99.99,,,0.00,Acu-Link.com,2013-01-25 01:59:00,
2013-01-24 20:15:00,64.9,64.4,30.07,ESE,112,0.0,-999.0,98,-99.99,,,0.00,Acu-Link.com,2013-01-25 02:15:00,
2013-01-24 20:30:00,65.5,64.9,30.07,ESE,112,0.0,-999.0,98,-99.99,,,0.00,Acu-Link.com,2013-01-25 02:30:00,
2013-01-24 20:45:00,66.0,65.4,30.06,ESE,112,0.0,-999.0,98,-99.99,,,0.00,Acu-Link.com,2013-01-25 02:45:00,
2013-01-24 21:00:00,65.5,38.5,30.06,ESE,112,0.0,-999.0,37,-99.99,,,0.00,Acu-Link.com,2013-01-25 03:00:00,
2013-01-24 21:15:00,65.3,64.7,30.06,ESE,112,0.0,-999.0,98,-99.99,,,0.00,Acu-Link.com,2013-01-25 03:15:00,
2013-01-24 21:31:00,66.0,65.4,30.06,ESE,112,0.0,-999.0,98,-99.99,,,0.00,Acu-Link.com,2013-01-25 03:31:00,
2013-01-24 21:46:00,65.7,65.1,30.06,ESE,112,0.0,-999.0,98,-99.99,,,0.00,Acu-Link.com,2013-01-25 03:46:00,
2013-01-24 22:01:00,64.8,64.2,30.06,WNW,292,0.0,-999.0,98,-99.99,,,0.00,Acu-Link.com,2013-01-25 04:01:00,
2013-01-24 22:16:00,63.3,62.7,30.06,West,270,0.0,-999.0,98,-99.99,,,0.00,Acu-Link.com,2013-01-25 04:16:00,
2013-01-24 22:31:00,61.9,61.3,30.06,West,270,0.0,-999.0,98,-99.99,,,0.00,Acu-Link.com,2013-01-25 04:31:00,
2013-01-24 22:47:00,61.0,60.4,30.06,West,270,0.0,-999.0,98,-99.99,,,0.00,Acu-Link.com,2013-01-25 04:47:00,
2013-01-24 23:02:00,60.8,60.2,30.05,West,270,0.0,-999.0,98,-99.99,,,0.00,Acu-Link.com,2013-01-25 05:02:00,
2013-01-24 23:17:00,60.1,59.5,30.05,West,270,0.0,-999.0,98,-99.99,,,0.00,Acu-Link.com,2013-01-25 05:17:00,
2013-01-24 23:32:00,60.1,59.5,30.05,West,270,0.0,-999.0,98,-99.99,,,0.00,Acu-Link.com,2013-01-25 05:32:00,
2013-01-24 23:47:00,61.0,60.7,30.06,West,270,0.0,-999.0,99,-99.99,,,0.00,Acu-Link.com,2013-01-25 05:47:00,